Time,TemperatureF,DewpointF,PressureIn,WindDirection,WindDirectionDegrees,WindSpeedMPH,WindSpeedGustMPH,Humidity,HourlyPrecipIn,Conditions,Clouds,dailyrainin,SoftwareType,DateUTC
2013-09-09 00:22:00,76.0,-99.9,-100.00,East,81,4.0,5.0,-999,-99.99,,,-99.99,,2013-09-09 06:22:00,
2013-09-09 00:32:00,76.0,-99.9,-100.00,East,81,4.0,5.0,-999,-99.99,,,-99.99,,2013-09-09 06:32:00,
2013-09-09 00:42:00,76.0,-99.9,-100.00,East,81,4.0,5.0,-999,-99.99,,,-99.99,,2013-09-09 06:42:00,
2013-09-09 01:50:00,73.0,-99.9,-100.00,ENE,78,3.0,6.0,-999,-99.99,,,-99.99,,2013-09-09 07:50:00,
2013-09-09 02:12:00,74.0,-99.9,-100.00,East,90,4.0,6.0,-999,-99.99,,,-99.99,,2013-09-09 08:12:00,
2013-09-09 02:22:00,74.0,-99.9,-100.00,ENE,72,4.0,6.0,-999,-99.99,,,-99.99,,2013-09-09 08:22:00,
2013-09-09 02:43:00,73.0,-99.9,-100.00,ENE,78,3.0,6.0,-999,-99.99,,,-99.99,,2013-09-09 08:43:00,
2013-09-09 03:00:00,72.0,-99.9,-100.00,East,83,3.0,4.0,-999,-99.99,,,-99.99,,2013-09-09 09:00:00,
2013-09-09 03:12:00,73.0,-99.9,-100.00,NE,56,4.0,7.0,-999,-99.99,,,-99.99,,2013-09-09 09:12:00,
2013-09-09 03:22:00,73.0,-99.9,-100.00,NE,56,4.0,7.0,-999,-99.99,,,-99.99,,2013-09-09 09:22:00,
2013-09-09 03:43:00,72.0,-99.9,-100.00,NE,50,2.0,5.0,-999,-99.99,,,-99.99,,2013-09-09 09:43:00,
2013-09-09 03:50:00,70.0,-99.9,-100.00,East,93,1.0,2.0,-999,-99.99,,,-99.99,,2013-09-09 09:50:00,
2013-09-09 03:54:00,72.0,-99.9,-100.00,East,83,3.0,4.0,-999,-99.99,,,-99.99,,2013-09-09 09:54:00,
2013-09-09 04:20:00,69.0,-99.9,-100.00,East,84,2.0,3.0,-999,-99.99,,,-99.99,,2013-09-09 10:20:00,
2013-09-09 04:43:00,70.0,-99.9,-100.00,East,93,1.0,2.0,-999,-99.99,,,-99.99,,2013-09-09 10:43:00,
2013-09-09 05:12:00,69.0,-99.9,-100.00,East,84,2.0,3.0,-999,-99.99,,,-99.99,,2013-09-09 11:12:00,
2013-09-09 05:20:00,69.0,-99.9,-100.00,ENE,70,3.0,5.0,-999,-99.99,,,-99.99,,2013-09-09 11:20:00,
2013-09-09 06:12:00,69.0,-99.9,-100.00,ENE,70,3.0,5.0,-999,-99.99,,,-99.99,,2013-09-09 12:12:00,
2013-09-09 06:42:00,69.0,-99.9,-100.00,East,89,3.0,5.0,-999,-99.99,,,-99.99,,2013-09-09 12:42:00,
2013-09-09 06:52:00,69.0,-99.9,-100.00,East,89,3.0,5.0,-999,-99.99,,,-99.99,,2013-09-09 12:52:00,
2013-09-09 08:42:00,69.0,-99.9,-100.00,East,89,3.0,6.0,-999,-99.99,,,-99.99,,2013-09-09 14:42:00,
2013-09-09 08:52:00,71.0,-99.9,-100.00,ENE,61,4.0,5.0,-999,-99.99,,,-99.99,,2013-09-09 14:52:00,
2013-09-09 09:00:00,73.0,-99.9,-100.00,ENE,73,6.0,7.0,-999,-99.99,,,-99.99,,2013-09-09 15:00:00,
2013-09-09 09:02:00,71.0,-99.9,-100.00,ENE,61,4.0,5.0,-999,-99.99,,,-99.99,,2013-09-09 15:02:00,
2013-09-09 09:11:00,71.0,-99.9,-100.00,ENE,61,4.0,5.0,-999,-99.99,,,-99.99,,2013-09-09 15:11:00,
2013-09-09 09:43:00,73.0,-99.9,-100.00,ENE,73,6.0,7.0,-999,-99.99,,,-99.99,,2013-09-09 15:43:00,
2013-09-09 09:53:00,73.0,-99.9,-100.00,ENE,73,6.0,7.0,-999,-99.99,,,-99.99,,2013-09-09 15:53:00,
2013-09-09 11:12:00,76.0,-99.9,-100.00,East,95,7.0,7.0,-999,-99.99,,,-99.99,,2013-09-09 17:12:00,
2013-09-09 12:22:00,80.0,-99.9,-100.00,ENE,68,4.0,7.0,-999,-99.99,,,-99.99,,2013-09-09 18:22:00,
2013-09-09 12:32:00,80.0,-99.9,-100.00,ENE,68,4.0,7.0,-999,-99.99,,,-99.99,,2013-09-09 18:32:00,
2013-09-09 13:12:00,82.0,-99.9,-100.00,SE,132,2.0,6.0,-999,-99.99,,,-99.99,,2013-09-09 19:12:00,
2013-09-09 13:22:00,82.0,-99.9,-100.00,SE,132,2.0,6.0,-999,-99.99,,,-99.99,,2013-09-09 19:22:00,
2013-09-09 13:43:00,82.0,-99.9,-100.00,NE,42,5.0,8.0,-999,-99.99,,,-99.99,,2013-09-09 19:43:00,
2013-09-09 14:22:00,86.0,-99.9,-100.00,East,95,4.0,5.0,-999,-99.99,,,-99.99,,2013-09-09 20:22:00,
2013-09-09 14:32:00,86.0,-99.9,-100.00,East,95,4.0,5.0,-999,-99.99,,,-99.99,,2013-09-09 20:32:00,
2013-09-09 14:42:00,86.0,-99.9,-100.00,East,95,4.0,5.0,-999,-99.99,,,-99.99,,2013-09-09 20:42:00,
2013-09-09 17:12:00,79.0,-99.9,-100.00,East,99,8.0,8.0,-999,-99.99,,,-99.99,,2013-09-09 23:12:00,
2013-09-09 17:22:00,79.0,-99.9,-100.00,East,99,8.0,8.0,-999,-99.99,,,-99.99,,2013-09-09 23:22:00,
2013-09-09 20:00:00,72.0,-99.9,-100.00,ESE,103,4.0,8.0,-999,-99.99,,,-99.99,,2013-09-10 02:00:00,
2013-09-09 20:12:00,73.0,-99.9,-100.00,East,84,4.0,5.0,-999,-99.99,,,-99.99,,2013-09-10 02:12:00,
2013-09-09 20:22:00,73.0,-99.9,-100.00,East,84,4.0,5.0,-999,-99.99,,,-99.99,,2013-09-10 02:22:00,
2013-09-09 20:52:00,72.0,-99.9,-100.00,ESE,103,4.0,8.0,-999,-99.99,,,-99.99,,2013-09-10 02:52:00,
2013-09-09 21:55:00,73.0,-99.9,-100.00,ENE,71,3.0,7.0,-999,-99.99,,,-99.99,,2013-09-10 03:55:00,
2013-09-09 22:04:00,73.0,-99.9,-100.00,ENE,71,3.0,7.0,-999,-99.99,,,-99.99,,2013-09-10 04:04:00,
2013-09-09 22:13:00,73.0,-99.9,-100.00,ENE,71,3.0,7.0,-999,-99.99,,,-99.99,,2013-09-10 04:13:00,
2013-09-09 23:53:00,67.0,-99.9,-100.00,SSE,151,1.0,1.0,-999,-99.99,,,-99.99,,2013-09-10 05:53:00,